WXM80 ListenWXM80 Stop

You find our weather info also at:

UK Metoffice

WeatherCloud

Weather Underground

Northeastern Weather Network

AWEKAS

Citizen Weather Observer Program (CWOP)

HAMweather, WeatherForYou, PWS Weather


Weather Underground History page Text

Daily Summary for January 25, 2016 Units:  English    Metric   Both
« Previous Day
Next Day »
Daily Weekly Monthly Yearly Custom
  High: Low: Average:
Temperature: 35.5 °F 26.3 °F 30.3 °F
Dew Point: 33.9 °F 25.3 °F 29.5 °F
Humidity: 98 % 93 % 97 %
Wind Speed: 5.0 mph 0.0 mph 1.1 mph
Wind Gust: 8.1 mph - -
Wind:- - SSW
Pressure: 30.30 in 30.08 in -
Precipitation: 0.00 in    
Historical Graphs
 
 
Tabular Data for January 25, 2016
Time Temperature Dew Point Pressure Wind Wind Speed Wind Gust Humidity Rainfall Rate (Hourly)
00:15 28.3 °F 27.6 °F 30.08 in NNW 0.7 mph 3.5 mph 97 % 0.00 in
00:20 28.3 °F 27.6 °F 30.08 in WNW 1.4 mph 4.6 mph 97 % 0.00 in
00:25 28.2 °F 27.5 °F 30.09 in WNW 2.5 mph 4.6 mph 97 % 0.00 in
00:30 28.2 °F 27.5 °F 30.09 in NW 3.4 mph 6.0 mph 97 % 0.00 in
00:35 28.1 °F 27.4 °F 30.09 in NW 2.1 mph 4.0 mph 97 % 0.00 in
00:40 28.1 °F 27.4 °F 30.09 in NW 3.2 mph 8.1 mph 97 % 0.00 in
00:45 28.0 °F 27.3 °F 30.09 in WSW 1.6 mph 4.6 mph 97 % 0.00 in
00:50 28.0 °F 27.3 °F 30.09 in WNW 2.4 mph 3.5 mph 97 % 0.00 in
00:55 27.9 °F 26.9 °F 30.10 in NW 1.4 mph 5.8 mph 96 % 0.00 in
01:01 27.9 °F 26.9 °F 30.10 in NNW 2.6 mph 4.6 mph 96 % 0.00 in
01:06 27.9 °F 26.9 °F 30.11 in NW 3.0 mph 7.0 mph 96 % 0.00 in
01:11 27.9 °F 26.9 °F 30.11 in WNW 2.7 mph 7.0 mph 96 % 0.00 in
01:16 27.9 °F 26.9 °F 30.11 in WNW 3.0 mph 5.8 mph 96 % 0.00 in
01:21 28.0 °F 27.0 °F 30.11 in NW 1.3 mph 4.6 mph 96 % 0.00 in
01:26 28.0 °F 27.3 °F 30.11 in WNW 3.0 mph 6.0 mph 97 % 0.00 in
01:31 28.1 °F 27.4 °F 30.12 in NW 1.6 mph 3.5 mph 97 % 0.00 in
01:36 28.1 °F 27.4 °F 30.12 in WNW 1.4 mph 3.5 mph 97 % 0.00 in
01:41 28.1 °F 27.4 °F 30.12 in North 2.2 mph 3.0 mph 97 % 0.00 in
01:46 28.1 °F 27.4 °F 30.12 in WNW 1.4 mph 5.0 mph 97 % 0.00 in
01:52 28.1 °F 27.4 °F 30.12 in WNW 2.9 mph 3.5 mph 97 % 0.00 in
01:57 28.1 °F 27.4 °F 30.12 in WNW 1.2 mph 3.5 mph 97 % 0.00 in
02:02 28.1 °F 27.4 °F 30.12 in NW 2.3 mph 5.8 mph 97 % 0.00 in
02:07 28.1 °F 27.4 °F 30.13 in NNW 1.6 mph 4.0 mph 97 % 0.00 in
02:12 28.0 °F 27.3 °F 30.13 in NW 1.3 mph 3.5 mph 97 % 0.00 in
02:17 27.9 °F 26.9 °F 30.13 in NW 0.3 mph 3.5 mph 96 % 0.00 in
02:22 27.9 °F 26.9 °F 30.13 in NNW 0.3 mph 1.0 mph 96 % 0.00 in
02:27 27.8 °F 26.8 °F 30.13 in NW 0.9 mph 3.5 mph 96 % 0.00 in
02:32 27.7 °F 26.7 °F 30.13 in NW 1.1 mph 3.0 mph 96 % 0.00 in
02:37 27.7 °F 26.7 °F 30.13 in NW 1.6 mph 3.5 mph 96 % 0.00 in
02:43 27.6 °F 26.6 °F 30.13 in NNW 0.3 mph 2.3 mph 96 % 0.00 in
02:48 27.5 °F 26.5 °F 30.13 in NNW 2.3 mph 5.8 mph 96 % 0.00 in
02:53 27.3 °F 26.3 °F 30.13 in NW 0.2 mph 2.3 mph 96 % 0.00 in
02:58 27.2 °F 26.2 °F 30.13 in NNW 0.6 mph 2.3 mph 96 % 0.00 in
03:03 27.2 °F 26.2 °F 30.13 in Calm     96 % 0.00 in
03:13 27.0 °F 26.0 °F 30.14 in NNW 0.5 mph 2.3 mph 96 % 0.00 in
03:23 26.8 °F 25.8 °F 30.14 in NNW 0.9 mph 3.5 mph 96 % 0.00 in
03:28 26.7 °F 25.7 °F 30.14 in NNW 1.1 mph 3.5 mph 96 % 0.00 in
03:34 26.6 °F 25.6 °F 30.14 in NNW 1.1 mph 3.5 mph 96 % 0.00 in
03:44 26.5 °F 25.5 °F 30.15 in North 1.6 mph 3.5 mph 96 % 0.00 in
03:49 26.4 °F 25.4 °F 30.15 in NNW 1.4 mph 3.5 mph 96 % 0.00 in
03:54 26.3 °F 25.3 °F 30.15 in North 3.0 mph 6.9 mph 96 % 0.00 in
03:59 26.3 °F 25.3 °F 30.15 in NNW 0.6 mph 3.5 mph 96 % 0.00 in
04:04 26.3 °F 25.3 °F 30.15 in NNW 0.7 mph 3.5 mph 96 % 0.00 in
04:14 26.3 °F 25.3 °F 30.16 in NNW 2.0 mph 3.5 mph 96 % 0.00 in
04:19 26.3 °F 25.3 °F 30.16 in North 1.5 mph 3.5 mph 96 % 0.00 in
04:25 26.3 °F 25.3 °F 30.16 in NNW 1.2 mph 3.5 mph 96 % 0.00 in
04:30 26.4 °F 25.4 °F 30.16 in NW 0.9 mph 3.5 mph 96 % 0.00 in
04:35 26.4 °F 25.4 °F 30.16 in NNW 1.8 mph 5.8 mph 96 % 0.00 in
04:40 26.4 °F 25.4 °F 30.16 in NNW 0.4 mph 2.3 mph 96 % 0.00 in
04:45 26.4 °F 25.4 °F 30.16 in NNW 2.3 mph 3.5 mph 96 % 0.00 in
04:50 26.5 °F 25.5 °F 30.17 in NNW 2.2 mph 3.5 mph 96 % 0.00 in
04:55 26.5 °F 25.5 °F 30.17 in NW 1.6 mph 3.5 mph 96 % 0.00 in
05:00 26.6 °F 25.6 °F 30.17 in North 1.9 mph 4.0 mph 96 % 0.00 in
05:05 26.6 °F 25.6 °F 30.18 in NNW 1.1 mph 2.3 mph 96 % 0.00 in
05:10 26.7 °F 25.7 °F 30.17 in North 2.3 mph 4.0 mph 96 % 0.00 in
05:15 26.8 °F 25.8 °F 30.18 in NNE 1.6 mph 3.5 mph 96 % 0.00 in
05:21 26.8 °F 25.8 °F 30.18 in Calm   1.2 mph 96 % 0.00 in
05:26 26.9 °F 25.9 °F 30.18 in NNW 0.3 mph 3.5 mph 96 % 0.00 in
05:31 26.8 °F 25.8 °F 30.18 in NNE 1.7 mph 3.5 mph 96 % 0.00 in
05:36 26.8 °F 25.8 °F 30.19 in North 0.9 mph 3.5 mph 96 % 0.00 in
05:41 26.7 °F 25.7 °F 30.19 in NNW 1.6 mph 2.3 mph 96 % 0.00 in
05:46 26.7 °F 25.7 °F 30.19 in NW 1.5 mph 3.5 mph 96 % 0.00 in
05:51 26.6 °F 25.6 °F 30.19 in NNW 3.0 mph 5.0 mph 96 % 0.00 in
05:56 26.6 °F 25.6 °F 30.19 in NNW 2.3 mph 3.5 mph 96 % 0.00 in
06:01 26.6 °F 25.6 °F 30.20 in NNW 2.9 mph 6.9 mph 96 % 0.00 in
06:12 26.6 °F 25.6 °F 30.19 in NNE 1.5 mph 5.8 mph 96 % 0.00 in
06:17 26.6 °F 25.6 °F 30.20 in North 2.3 mph 6.0 mph 96 % 0.00 in
06:22 26.7 °F 25.7 °F 30.20 in North 1.4 mph 3.5 mph 96 % 0.00 in
06:27 26.7 °F 25.7 °F 30.20 in NW 1.6 mph 3.5 mph 96 % 0.00 in
06:32 26.7 °F 25.7 °F 30.20 in North 0.8 mph 4.6 mph 96 % 0.00 in
06:37 26.7 °F 25.7 °F 30.20 in North 2.2 mph 3.5 mph 96 % 0.00 in
06:42 26.8 °F 25.8 °F 30.20 in NW 2.2 mph 6.9 mph 96 % 0.00 in
06:47 26.7 °F 25.7 °F 30.21 in North 2.7 mph 3.5 mph 96 % 0.00 in
06:52 26.7 °F 25.7 °F 30.21 in NNW 2.4 mph 3.5 mph 96 % 0.00 in
06:57 26.7 °F 25.7 °F 30.21 in North 2.3 mph 5.0 mph 96 % 0.00 in
07:03 26.7 °F 25.7 °F 30.22 in North 1.3 mph 3.0 mph 96 % 0.00 in
07:08 26.8 °F 25.8 °F 30.22 in North 3.1 mph 5.8 mph 96 % 0.00 in
07:13 26.8 °F 25.8 °F 30.22 in NNW 2.1 mph 4.6 mph 96 % 0.00 in
07:18 26.8 °F 25.8 °F 30.22 in NNE 1.6 mph 3.5 mph 96 % 0.00 in
07:23 26.8 °F 25.8 °F 30.23 in NNE 2.1 mph 5.0 mph 96 % 0.00 in
07:28 26.8 °F 25.8 °F 30.23 in NNE 0.7 mph 2.0 mph 96 % 0.00 in
07:33 26.9 °F 25.9 °F 30.23 in North 1.7 mph 5.0 mph 96 % 0.00 in
07:38 26.9 °F 25.9 °F 30.23 in NNW 1.2 mph 2.0 mph 96 % 0.00 in
07:43 27.0 °F 26.0 °F 30.23 in NNW 2.4 mph 2.4 mph 96 % 0.00 in
07:48 27.1 °F 26.4 °F 30.23 in NNW 1.4 mph 2.0 mph 97 % 0.00 in
07:59 27.2 °F 26.5 °F 30.24 in North 0.6 mph 3.5 mph 97 % 0.00 in
08:04 27.4 °F 26.7 °F 30.24 in NNW 1.1 mph 2.3 mph 97 % 0.00 in
08:09 27.6 °F 26.9 °F 30.25 in North 0.8 mph 2.0 mph 97 % 0.00 in
08:14 27.8 °F 27.1 °F 30.25 in NNE 2.0 mph 3.5 mph 97 % 0.00 in
08:19 28.1 °F 27.4 °F 30.25 in NNW 2.9 mph 4.6 mph 97 % 0.00 in
08:24 28.4 °F 27.7 °F 30.25 in North 1.9 mph 6.9 mph 97 % 0.00 in
08:29 28.8 °F 28.1 °F 30.25 in North 2.1 mph 4.0 mph 97 % 0.00 in
08:34 29.0 °F 28.3 °F 30.25 in North 2.1 mph 4.0 mph 97 % 0.00 in
08:39 29.3 °F 28.6 °F 30.25 in North 2.6 mph 5.8 mph 97 % 0.00 in
08:45 29.5 °F 28.8 °F 30.25 in NE 2.4 mph 4.0 mph 97 % 0.00 in
08:50 29.9 °F 29.2 °F 30.25 in North 3.9 mph 4.0 mph 97 % 0.00 in
08:55 30.3 °F 29.6 °F 30.25 in North 2.4 mph 5.0 mph 97 % 0.00 in
09:00 30.8 °F 29.8 °F 30.26 in North 2.5 mph 3.5 mph 96 % 0.00 in
09:05 31.2 °F 30.2 °F 30.26 in NNE 5.0 mph 5.8 mph 96 % 0.00 in
09:10 31.3 °F 30.3 °F 30.26 in NNE 1.4 mph 3.5 mph 96 % 0.00 in
09:15 31.6 °F 30.6 °F 30.27 in NNE 2.8 mph 4.6 mph 96 % 0.00 in
09:20 31.9 °F 30.6 °F 30.26 in NNE 2.7 mph 4.0 mph 95 % 0.00 in
09:25 32.4 °F 31.1 °F 30.27 in North 3.6 mph 4.6 mph 95 % 0.00 in
09:30 32.8 °F 31.5 °F 30.27 in NNE 1.4 mph 3.0 mph 95 % 0.00 in
09:36 33.1 °F 31.8 °F 30.28 in North 2.6 mph 3.5 mph 95 % 0.00 in
09:41 33.3 °F 32.0 °F 30.28 in NNE 2.9 mph 4.0 mph 95 % 0.00 in
09:46 33.3 °F 32.0 °F 30.28 in North 2.3 mph 3.5 mph 95 % 0.00 in
09:51 33.4 °F 32.1 °F 30.28 in North 1.8 mph 3.5 mph 95 % 0.00 in
09:56 33.7 °F 32.4 °F 30.28 in NNE 0.3 mph 2.0 mph 95 % 0.00 in
10:01 33.9 °F 32.6 °F 30.29 in NNE 1.3 mph 3.0 mph 95 % 0.00 in
10:06 34.2 °F 32.9 °F 30.29 in NNE 2.0 mph 4.0 mph 95 % 0.00 in
10:11 34.4 °F 33.1 °F 30.29 in NNE 0.8 mph 4.0 mph 95 % 0.00 in
10:16 34.8 °F 33.2 °F 30.29 in NNE 2.4 mph 3.5 mph 94 % 0.00 in
10:21 34.8 °F 33.2 °F 30.30 in Calm   2.3 mph 94 % 0.00 in
10:27 34.9 °F 33.3 °F 30.29 in NNW 1.9 mph 3.5 mph 94 % 0.00 in
10:32 35.2 °F 33.4 °F 30.29 in NNW 0.6 mph 2.3 mph 93 % 0.00 in
10:37 35.4 °F 33.8 °F 30.29 in NNE 2.0 mph 4.6 mph 94 % 0.00 in
10:42 35.4 °F 33.6 °F 30.29 in NNE 1.3 mph 3.0 mph 93 % 0.00 in
10:47 35.4 °F 33.6 °F 30.29 in Calm     93 % 0.00 in
10:52 35.0 °F 33.4 °F 30.29 in Calm   1.2 mph 94 % 0.00 in
10:57 35.2 °F 33.6 °F 30.29 in NNE 2.6 mph 3.5 mph 94 % 0.00 in
11:02 35.5 °F 33.9 °F 30.29 in NNE 1.5 mph 3.5 mph 94 % 0.00 in
11:07 34.8 °F 33.2 °F 30.29 in NNE 0.7 mph 2.3 mph 94 % 0.00 in
11:12 34.4 °F 32.9 °F 30.29 in NNE 1.1 mph 2.3 mph 94 % 0.00 in
11:23 33.5 °F 32.2 °F 30.29 in NNE 1.3 mph 3.5 mph 95 % 0.00 in
11:28 33.5 °F 32.2 °F 30.29 in NNE 1.6 mph 2.3 mph 95 % 0.00 in
11:33 33.4 °F 32.1 °F 30.29 in NNE 1.1 mph 2.3 mph 95 % 0.00 in
11:38 33.4 °F 32.4 °F 30.28 in Calm   1.2 mph 96 % 0.00 in
11:43 33.5 °F 32.5 °F 30.29 in NNE 0.4 mph 1.2 mph 96 % 0.00 in
11:48 33.6 °F 32.6 °F 30.29 in NNE 1.3 mph 2.3 mph 96 % 0.00 in
11:53 33.3 °F 32.3 °F 30.29 in NNE 0.9 mph 1.2 mph 96 % 0.00 in
11:58 33.1 °F 32.1 °F 30.29 in NNE 0.4 mph 2.3 mph 96 % 0.00 in
12:03 33.1 °F 32.1 °F 30.29 in NNE 0.5 mph 2.3 mph 96 % 0.00 in
12:08 33.0 °F 32.0 °F 30.28 in Calm     96 % 0.00 in
12:10 32.9 °F 31.9 °F 30.28 in NNE 0.1 mph 2.3 mph 96 % 0.00 in
12:11 32.9 °F 31.9 °F 30.28 in NNE 0.2 mph 1.2 mph 96 % 0.00 in
12:12 33.0 °F 32.0 °F 30.28 in NNE 0.8 mph 2.3 mph 96 % 0.00 in
12:13 32.9 °F 31.9 °F 30.28 in NNE 0.6 mph 2.3 mph 96 % 0.00 in
12:18 33.0 °F 32.2 °F 30.28 in NNE 2.0 mph 3.5 mph 97 % 0.00 in
12:23 33.0 °F 32.0 °F 30.28 in NE 2.4 mph 3.5 mph 96 % 0.00 in
12:29 33.1 °F 32.1 °F 30.28 in NE 1.9 mph 3.5 mph 96 % 0.00 in
12:34 33.2 °F 32.2 °F 30.28 in NE 2.0 mph 3.5 mph 96 % 0.00 in
12:39 33.2 °F 32.2 °F 30.27 in NE 1.4 mph 2.3 mph 96 % 0.00 in
12:44 33.0 °F 32.0 °F 30.28 in NE 1.5 mph 3.5 mph 96 % 0.00 in
12:49 32.9 °F 31.9 °F 30.28 in NE 2.3 mph 3.5 mph 96 % 0.00 in
12:54 32.9 °F 31.9 °F 30.27 in NE 1.9 mph 3.5 mph 96 % 0.00 in
12:59 32.9 °F 31.9 °F 30.27 in NE 0.9 mph 2.3 mph 96 % 0.00 in
13:04 32.9 °F 31.9 °F 30.27 in NE 1.4 mph 2.3 mph 96 % 0.00 in
13:14 33.0 °F 32.0 °F 30.27 in NE 1.1 mph 2.3 mph 96 % 0.00 in
13:20 33.0 °F 32.0 °F 30.27 in NE 1.2 mph 3.5 mph 96 % 0.00 in
13:25 33.1 °F 32.1 °F 30.27 in NE 1.5 mph 3.5 mph 96 % 0.00 in
13:30 33.0 °F 32.0 °F 30.26 in NE 1.7 mph 2.3 mph 96 % 0.00 in
13:35 33.0 °F 32.0 °F 30.26 in NE 1.3 mph 2.3 mph 96 % 0.00 in
13:40 32.9 °F 31.9 °F 30.27 in NE 1.2 mph 2.3 mph 96 % 0.00 in
13:45 33.0 °F 32.0 °F 30.26 in NE 1.4 mph 2.3 mph 96 % 0.00 in
13:50 33.2 °F 32.2 °F 30.26 in NE 2.1 mph 3.5 mph 96 % 0.00 in
13:55 33.2 °F 32.2 °F 30.26 in NE 2.3 mph 3.0 mph 96 % 0.00 in
14:00 33.2 °F 32.2 °F 30.26 in NE 0.8 mph 1.2 mph 96 % 0.00 in
14:05 33.3 °F 32.3 °F 30.26 in NE 1.6 mph 3.5 mph 96 % 0.00 in
14:11 33.4 °F 32.4 °F 30.26 in NE 1.2 mph 2.3 mph 96 % 0.00 in
14:16 33.4 °F 32.4 °F 30.26 in NE 1.6 mph 3.5 mph 96 % 0.00 in
14:21 33.3 °F 32.3 °F 30.27 in NE 0.2 mph 1.2 mph 96 % 0.00 in
14:26 33.2 °F 32.2 °F 30.27 in NE 0.1 mph 1.2 mph 96 % 0.00 in
14:31 33.2 °F 32.2 °F 30.26 in NE 0.2 mph 2.3 mph 96 % 0.00 in
14:36 33.2 °F 32.2 °F 30.26 in Calm     96 % 0.00 in
14:42 33.3 °F 32.3 °F 30.27 in NE 0.2 mph 2.3 mph 96 % 0.00 in
14:48 33.3 °F 32.3 °F 30.27 in NE 0.3 mph 1.2 mph 96 % 0.00 in
14:53 33.3 °F 32.3 °F 30.27 in Calm   1.2 mph 96 % 0.00 in
14:58 33.3 °F 32.3 °F 30.27 in Calm     96 % 0.00 in
15:03 33.2 °F 32.2 °F 30.27 in Calm     96 % 0.00 in
15:08 33.2 °F 32.2 °F 30.27 in Calm     96 % 0.00 in
15:13 33.2 °F 32.4 °F 30.27 in Calm     97 % 0.00 in
15:18 33.2 °F 32.4 °F 30.26 in Calm   1.2 mph 97 % 0.00 in
15:24 33.2 °F 32.4 °F 30.26 in Calm     97 % 0.00 in
15:29 33.2 °F 32.4 °F 30.26 in NE 1.2 mph 3.5 mph 97 % 0.00 in
15:34 33.3 °F 32.5 °F 30.26 in SW 1.6 mph 3.5 mph 97 % 0.00 in
15:39 33.3 °F 32.5 °F 30.26 in SW 0.1 mph 1.2 mph 97 % 0.00 in
15:44 33.3 °F 32.5 °F 30.26 in Calm   1.2 mph 97 % 0.00 in
15:49 33.2 °F 32.4 °F 30.26 in NNW 0.1 mph 1.0 mph 97 % 0.00 in
15:52 33.2 °F 32.4 °F 30.26 in NNW 0.2 mph 2.3 mph 97 % 0.00 in
15:54 33.2 °F 32.4 °F 30.26 in NNW 0.9 mph 2.3 mph 97 % 0.00 in
15:55 33.2 °F 32.4 °F 30.26 in NNW 0.8 mph 2.3 mph 97 % 0.00 in
15:56 33.2 °F 32.4 °F 30.26 in NNW 0.3 mph 2.3 mph 97 % 0.00 in
15:57 33.2 °F 32.4 °F 30.26 in Calm     97 % 0.00 in
15:59 33.2 °F 32.4 °F 30.26 in Calm   1.2 mph 97 % 0.00 in
16:04 33.2 °F 32.4 °F 30.26 in Calm     97 % 0.00 in
16:09 33.2 °F 32.4 °F 30.26 in Calm     97 % 0.00 in
16:14 33.1 °F 32.3 °F 30.26 in NNW 0.5 mph 1.2 mph 97 % 0.00 in
16:19 33.0 °F 32.2 °F 30.27 in Calm     97 % 0.00 in
16:29 33.0 °F 32.2 °F 30.27 in Calm     97 % 0.00 in
16:34 33.0 °F 32.2 °F 30.27 in Calm     97 % 0.00 in
16:39 33.0 °F 32.2 °F 30.27 in Calm     97 % 0.00 in
16:44 33.0 °F 32.2 °F 30.27 in Calm     97 % 0.00 in
16:50 32.8 °F 32.0 °F 30.27 in SE 0.9 mph 4.6 mph 97 % 0.00 in
16:55 32.8 °F 32.0 °F 30.27 in SSW 1.1 mph 3.5 mph 97 % 0.00 in
17:00 32.7 °F 31.9 °F 30.27 in SSW 1.2 mph 1.2 mph 97 % 0.00 in
17:05 32.7 °F 31.9 °F 30.27 in SSW 0.9 mph 2.3 mph 97 % 0.00 in
17:10 32.7 °F 31.9 °F 30.27 in SSW 1.6 mph 3.5 mph 97 % 0.00 in
17:15 32.6 °F 31.8 °F 30.27 in South 2.7 mph 7.0 mph 97 % 0.00 in
17:20 32.5 °F 31.7 °F 30.27 in South 0.9 mph 2.3 mph 97 % 0.00 in
17:25 32.5 °F 32.0 °F 30.27 in South 0.4 mph 2.3 mph 98 % 0.00 in
17:30 32.5 °F 32.0 °F 30.27 in South 0.8 mph 2.3 mph 98 % 0.00 in
17:35 32.5 °F 32.0 °F 30.27 in South 0.4 mph 3.5 mph 98 % 0.00 in
17:41 32.4 °F 31.6 °F 30.27 in South 0.3 mph 1.2 mph 97 % 0.00 in
17:46 32.3 °F 31.8 °F 30.27 in South 0.5 mph 2.3 mph 98 % 0.00 in
17:51 32.3 °F 31.8 °F 30.27 in South 0.9 mph 2.3 mph 98 % 0.00 in
17:56 32.3 °F 31.8 °F 30.27 in South 0.8 mph 3.5 mph 98 % 0.00 in
18:01 32.2 °F 31.7 °F 30.28 in South 0.7 mph 3.5 mph 98 % 0.00 in
18:06 32.1 °F 31.6 °F 30.27 in South 1.7 mph 2.3 mph 98 % 0.00 in
18:11 32.1 °F 31.6 °F 30.27 in South 1.6 mph 3.5 mph 98 % 0.00 in
18:21 32.1 °F 31.6 °F 30.28 in South 0.6 mph 2.3 mph 98 % 0.00 in
18:26 32.1 °F 31.6 °F 30.28 in South 0.6 mph 1.2 mph 98 % 0.00 in
18:32 32.0 °F 31.5 °F 30.27 in South 1.3 mph 2.3 mph 98 % 0.00 in
18:37 32.0 °F 31.5 °F 30.28 in South 1.4 mph 3.5 mph 98 % 0.00 in
18:42 31.9 °F 31.4 °F 30.28 in South 1.4 mph 2.3 mph 98 % 0.00 in
18:47 31.9 °F 31.4 °F 30.29 in South 1.7 mph 3.5 mph 98 % 0.00 in
18:52 31.8 °F 31.3 °F 30.29 in South 0.9 mph 2.3 mph 98 % 0.00 in
18:57 31.7 °F 31.2 °F 30.29 in South 0.2 mph 1.2 mph 98 % 0.00 in
19:02 31.6 °F 31.1 °F 30.29 in South 0.8 mph 1.2 mph 98 % 0.00 in
19:07 31.6 °F 31.1 °F 30.29 in South 0.6 mph 3.5 mph 98 % 0.00 in
19:12 31.6 °F 31.1 °F 30.29 in Calm     98 % 0.00 in
19:17 31.6 °F 31.1 °F 30.29 in Calm   2.3 mph 98 % 0.00 in
19:23 31.7 °F 31.2 °F 30.28 in South 0.3 mph 1.2 mph 98 % 0.00 in
19:28 31.6 °F 31.1 °F 30.28 in Calm     98 % 0.00 in
19:33 31.5 °F 31.0 °F 30.28 in Calm     98 % 0.00 in
19:38 31.6 °F 31.1 °F 30.28 in Calm     98 % 0.00 in
19:43 31.5 °F 31.0 °F 30.28 in Calm     98 % 0.00 in
19:48 31.2 °F 30.7 °F 30.28 in Calm   1.2 mph 98 % 0.00 in
19:53 31.0 °F 30.5 °F 30.28 in South 0.2 mph 1.2 mph 98 % 0.00 in
19:58 30.8 °F 30.3 °F 30.28 in South 0.6 mph 2.3 mph 98 % 0.00 in
20:03 30.7 °F 30.2 °F 30.28 in South 0.7 mph 2.3 mph 98 % 0.00 in
20:08 30.6 °F 30.1 °F 30.28 in Calm   1.2 mph 98 % 0.00 in
20:14 30.7 °F 30.2 °F 30.28 in Calm   1.2 mph 98 % 0.00 in
20:19 30.7 °F 30.2 °F 30.28 in Calm   1.2 mph 98 % 0.00 in
20:24 30.6 °F 30.1 °F 30.28 in Calm   1.2 mph 98 % 0.00 in
20:29 30.7 °F 30.2 °F 30.27 in South 0.2 mph 1.2 mph 98 % 0.00 in
20:34 30.5 °F 30.0 °F 30.28 in South 0.2 mph 1.0 mph 98 % 0.00 in
20:39 30.4 °F 29.9 °F 30.27 in Calm     98 % 0.00 in
20:44 30.4 °F 29.9 °F 30.27 in South 0.3 mph   98 % 0.00 in
20:49 30.3 °F 29.8 °F 30.27 in South 0.3 mph 2.0 mph 98 % 0.00 in
20:54 30.3 °F 29.8 °F 30.27 in South 0.3 mph 1.2 mph 98 % 0.00 in
20:59 30.3 °F 29.8 °F 30.27 in South 0.1 mph 1.2 mph 98 % 0.00 in
21:05 30.2 °F 29.7 °F 30.27 in Calm     98 % 0.00 in
21:10 30.2 °F 29.7 °F 30.27 in South 0.2 mph 1.2 mph 98 % 0.00 in
21:15 30.1 °F 29.6 °F 30.28 in South 0.3 mph 2.3 mph 98 % 0.00 in
21:20 30.1 °F 29.6 °F 30.27 in Calm   1.2 mph 98 % 0.00 in
21:25 29.9 °F 29.4 °F 30.27 in Calm     98 % 0.00 in
21:30 29.8 °F 29.3 °F 30.27 in Calm     98 % 0.00 in
21:35 29.8 °F 29.3 °F 30.27 in Calm     98 % 0.00 in
21:40 29.6 °F 29.1 °F 30.27 in Calm     98 % 0.00 in
21:45 29.4 °F 28.9 °F 30.26 in South 0.2 mph 1.2 mph 98 % 0.00 in
21:50 29.2 °F 28.7 °F 30.26 in South 0.1 mph 1.2 mph 98 % 0.00 in
21:56 29.2 °F 28.7 °F 30.26 in Calm     98 % 0.00 in
22:01 29.4 °F 28.9 °F 30.26 in Calm     98 % 0.00 in
22:06 29.3 °F 28.8 °F 30.26 in Calm     98 % 0.00 in
22:11 29.3 °F 28.8 °F 30.26 in Calm     98 % 0.00 in
22:16 29.3 °F 28.8 °F 30.26 in Calm     98 % 0.00 in
22:21 29.1 °F 28.6 °F 30.25 in Calm   1.2 mph 98 % 0.00 in
22:26 28.9 °F 28.4 °F 30.25 in Calm     98 % 0.00 in
22:31 28.8 °F 28.3 °F 30.25 in Calm     98 % 0.00 in
22:36 28.6 °F 28.1 °F 30.25 in Calm     98 % 0.00 in
22:47 28.4 °F 27.9 °F 30.25 in Calm     98 % 0.00 in
22:52 28.3 °F 27.6 °F 30.25 in Calm     97 % 0.00 in
22:57 28.1 °F 27.6 °F 30.24 in Calm     98 % 0.00 in
23:02 27.9 °F 27.2 °F 30.24 in Calm     97 % 0.00 in
23:07 27.8 °F 27.1 °F 30.24 in Calm     97 % 0.00 in
23:12 27.7 °F 27.0 °F 30.24 in Calm     97 % 0.00 in
23:17 27.6 °F 26.9 °F 30.24 in Calm     97 % 0.00 in
23:22 27.5 °F 26.8 °F 30.24 in Calm     97 % 0.00 in
23:27 27.4 °F 26.7 °F 30.24 in Calm     97 % 0.00 in
23:33 27.3 °F 26.6 °F 30.23 in Calm     97 % 0.00 in
23:38 27.1 °F 26.4 °F 30.23 in Calm     97 % 0.00 in
23:43 27.0 °F 26.3 °F 30.23 in Calm     97 % 0.00 in
23:48 26.9 °F 26.2 °F 30.23 in Calm     97 % 0.00 in
23:53 26.9 °F 26.2 °F 30.22 in Calm     97 % 0.00 in
23:58 26.8 °F 26.1 °F 30.21 in Calm     97 % 0.00 in
Crab Meadow Weather
Compliments of Weather Underground - 2.75 mb

Script developed by  Jim McMurry - jmcmurry@mwt.net Adapted for the template by  Wim van der Kuil - Leuven-Template.eu

Heat Index: The heat index combines air temperature and dew point in an attempt to determine the human-perceived equivalent temperature - how hot it feels. The human body normally cools itself by sweating, which evaporates and carries heat away from the body. However, when the relative humidity is high the evaporation rate is reduced, so heat is removed from the body at a lower rate causing it to retain more heat than it would in dry air.